[[{"header":{"parameterUnit":"m.s-1","parameterCategory":1,"la1":30.2991,"la2":30.254,"lo1":-89.0895,"lo2":-89.0444,"dy":0.0017,"dx":0.0017,"nx":28,"ny":28,"refTime":"2023-08-30T09:00:00:Z","depth":0,"parameterNumber":2,"parameterNumberName":"U-component_of_WINDS"},"data":[0,0,0,0,0,0,0,0,0,0,0,0,0,0,0,0,0,0,0,0,0,0,0,0,0,0,0,0,0,0,0,0,0,0,0,0,0,0,0,0,0,0,0,0,0,0,0,0,0,0,0,0,0,0,0,0,0,0,0.48,0.48,0,0.4739,0.4738,0.4737,0.476,0.4761,0.4763,0.4764,0.4697,0.4694,0.4691,0,0,0,0,0,0,0,0,0,0,0,0,0,0.4935,0.4932,0.4801,0.48,0.4799,0.4739,0.4738,0.4737,0.476,0.4761,0.4763,0.4765,0.4698,0.4694,0.469,0,0,0,0,0,0,0,0,0,0,0,0,0,0.4875,0.4931,0.4801,0.4803,0.4803,0.4739,0.4738,0.4737,0.4759,0.4762,0.4764,0.4766,0.4699,0.4695,0.469,0.4619,0,0,0.4676,0.4674,0,0,0,0,0,0,0,0,0.4878,0.487,0.4803,0.4803,0.4802,0.4759,0.4761,0.4697,0.4759,0.4776,0.4764,0.4767,0.4716,0.471,0.4693,0.4616,0.4613,0.4675,0.4672,0.467,0.4669,0,0,0,0,0,0,0,0.4882,0.4873,0.4776,0.4802,0.4802,0.4806,0.48,0.4749,0.4734,0.4774,0.4776,0.4769,0.4716,0.4698,0.4692,0.4612,0.4675,0.4671,0.4668,0.4667,0.4472,0.447,0,0,0,0,0,0,0.4887,0.4876,0.4778,0.4774,0.4846,0.4802,0.4795,0.4771,0.4735,0.4732,0.4767,0.477,0.4705,0.4697,0.469,0.4603,0.467,0.4666,0.4663,0.4475,0.4472,0.4469,0,0,0,0,0,0,0.489,0.4878,0.478,0.4826,0.4813,0.4798,0.477,0.4769,0.4751,0.4729,0.4727,0.4751,0.4706,0.4696,0.4637,0.4601,0.4664,0.466,0.4478,0.4474,0.4471,0.443,0,0,0,0,0,0,0.4894,0.4879,0.4853,0.4825,0.4811,0.4729,0.4768,0.4766,0.4743,0.4747,0.4714,0.4711,0.4707,0.4643,0.4632,0.4596,0.4656,0.4481,0.4476,0.4472,0.4434,0.4425,0.4418,0,0,0,0,0,0.4899,0.4843,0.4851,0.4839,0.4777,0.4727,0.4719,0.4717,0.474,0.4713,0.4699,0.4712,0.4608,0.4637,0.4624,0.4586,0.4483,0.4477,0.4472,0.4438,0.4427,0.4418,0,0,0,0,0,0,0.4865,0.4839,0.4848,0.4782,0.4757,0.4731,0.4696,0.4705,0.4672,0.4676,0.4674,0.4667,0.4605,0.459,0.4623,0.4516,0.4549,0.454,0.4527,0.4516,0.4508,0.4511,0.4652,0,0,0,0,0,0.485,0.4812,0.4791,0.4735,0.4722,0.4711,0.4689,0.469,0.4663,0.4652,0.4634,0.4607,0.4568,0.4542,0.4505,0.4434,0.4426,0.4401,0.4393,0.4386,0.4378,0.4338,0.4326,0.4452,0.4452,0.4452,0,0,0.4818,0.4799,0.4775,0.4727,0.4708,0.4667,0.4702,0.4658,0.4627,0.4645,0.4587,0.4573,0.4543,0.4477,0.4446,0.4462,0.4343,0.438,0.4374,0.437,0.4331,0.432,0.4309,0.4448,0.4449,0.445,0,0,0.4738,0.4722,0.4672,0.4653,0.4623,0.4617,0.4605,0.4579,0.457,0.4513,0.4526,0.449,0.4423,0.44,0.438,0.4294,0.4304,0.4283,0.4238,0.4199,0.4189,0.418,0.4148,0.4136,0.4275,0.4275,0.4275,0,0.4701,0.4642,0.4645,0.46,0.4578,0.4595,0.4544,0.4525,0.4484,0.4468,0.4488,0.4405,0.4385,0.4313,0.4293,0.4277,0.4262,0.4284,0.4191,0.4182,0.4174,0.4142,0.4131,0.4273,0.4273,0.4273,0.4274,0,0.4598,0.4556,0.452,0.4482,0.4457,0.4409,0.4403,0.4377,0.4381,0.4373,0.4314,0.4292,0.425,0.4235,0.4237,0.4163,0.4174,0.4192,0.4224,0.4159,0.413,0.4118,0.4269,0.427,0.4271,0.4271,0,0,0.4491,0.4458,0.4444,0.4427,0.4397,0.4364,0.4318,0.4279,0.4256,0.4229,0.4188,0.4132,0.4149,0.4126,0.4128,0.4094,0.4026,0.4116,0.4116,0.4098,0.394,0.3924,0.3911,0.4034,0.4032,0.403,0.3942,0,0.4407,0.4326,0.4328,0.4251,0.4212,0.423,0.4189,0.4166,0.4157,0.4122,0.4113,0.4073,0.4099,0.4086,0.4054,0.4041,0.3993,0.4048,0.3993,0.3991,0.3997,0.3896,0.3878,0.3796,0.3931,0.3929,0.3928,0,0.4297,0.4268,0.4188,0.4164,0.4148,0.4111,0.4076,0.4043,0.4018,0.4014,0.3989,0.3996,0.3948,0.3985,0.3917,0.3954,0.3933,0.3924,0.392,0.3912,0.3953,0.3882,0.377,0.3757,0.391,0.3911,0.3913,0,0.4224,0.4165,0.4109,0.4094,0.4066,0.404,0.4027,0.4003,0.398,0.395,0.3934,0.3898,0.3877,0.3849,0.3846,0.3874,0.3777,0.3814,0.3771,0.3771,0.3746,0.3747,0.3627,0.3738,0.3738,0.3739,0.3739,0,0.4128,0.4078,0.4076,0.4041,0.3985,0.3989,0.3933,0.3923,0.3902,0.3865,0.3879,0.3843,0.3843,0.3806,0.3804,0.3747,0.3739,0.3733,0.3732,0.373,0.373,0.3713,0.3717,0.3735,0.3736,0.3737,0.3737,0,0.4035,0.4032,0.3972,0.3952,0.3946,0.3905,0.3887,0.3853,0.3848,0.3801,0.379,0.378,0.3738,0.3733,0.3684,0.3683,0.3614,0.3621,0.3622,0.3622,0.3578,0.3581,0.3439,0.342,0.3547,0.3546,0.3545,0,0.3972,0.3934,0.391,0.3887,0.3873,0.3835,0.3812,0.3815,0.379,0.3759,0.3729,0.3689,0.3657,0.3589,0.3577,0.354,0.3544,0.3497,0.3538,0.3537,0.354,0.3541,0.3536,0.3488,0.3486,0.3485,0.3484,0,0.386,0.3861,0.3828,0.3794,0.3766,0.374,0.3715,0.3695,0.3695,0.3666,0.3624,0.36,0.3551,0.351,0.3474,0.346,0.347,0.3472,0.346,0.3455,0.3456,0.3452,0.3597,0.3474,0.3475,0.3476,0.3477,0.3477,0.3778,0.3745,0.3723,0.3685,0.3668,0.3644,0.3612,0.3603,0.3569,0.353,0.3534,0.3487,0.3464,0.3416,0.34,0.3363,0.3378,0.336,0.3355,0.335,0.3344,0.3466,0.3356,0.3357,0.3357,0.3357,0.3357,0,0.3664,0.3651,0.3617,0.3583,0.3553,0.357,0.3544,0.3517,0.3476,0.3454,0.3423,0.3375,0.3337,0.3323,0.3285,0.3258,0.3262,0.3247,0.3247,0.3244,0.3334,0.3347,0.3245,0.3245,0.3245,0.3245,0.3245,0.3245,0.3601,0.3545,0.3544,0.3479,0.3467,0.3422,0.3406,0.3384,0.3366,0.3312,0.3281,0.3273,0.3254,0.3215,0.318,0.3177,0.3161,0.3144,0.3143,0.3226,0.3237,0.3248,0.326,0.3141,0.3141,0.3055,0.3054,0.3054]},{"header":{"parameterUnit":"m.s-1","parameterCategory":1,"la1":30.2991,"la2":30.254,"lo1":-89.0895,"lo2":-89.0444,"dy":0.0017,"dx":0.0017,"nx":28,"ny":28,"refTime":"2023-08-30T09:00:00:Z","depth":0,"parameterNumber":3,"parameterNumberName":"V-component_of_WINDS"},"data":[0,0,0,0,0,0,0,0,0,0,0,0,0,0,0,0,0,0,0,0,0,0,0,0,0,0,0,0,0,0,0,0,0,0,0,0,0,0,0,0,0,0,0,0,0,0,0,0,0,0,0,0,0,0,0,0,0,0,-3.8496,-3.8498,0,-3.8636,-3.8638,-3.8639,-3.8613,-3.8611,-3.8608,-3.8606,-3.8747,-3.8753,-3.8759,0,0,0,0,0,0,0,0,0,0,0,0,0,-3.8203,-3.8209,-3.8496,-3.8498,-3.85,-3.8636,-3.8638,-3.864,-3.8614,-3.8611,-3.8608,-3.8605,-3.8745,-3.8753,-3.876,0,0,0,0,0,0,0,0,0,0,0,0,0,-3.8336,-3.8211,-3.8496,-3.8503,-3.8505,-3.8636,-3.8638,-3.864,-3.8614,-3.8611,-3.8607,-3.8603,-3.8743,-3.8752,-3.8761,-3.8892,0,0,-3.8789,-3.8793,0,0,0,0,0,0,0,0,-3.8328,-3.8346,-3.85,-3.8503,-3.8505,-3.8603,-3.8586,-3.8725,-3.8615,-3.8573,-3.8606,-3.8601,-3.8702,-3.8715,-3.8749,-3.8899,-3.8905,-3.879,-3.8795,-3.8799,-3.8802,0,0,0,0,0,0,0,-3.8319,-3.834,-3.8551,-3.8502,-3.8506,-3.8498,-3.8513,-3.8613,-3.8657,-3.8576,-3.8575,-3.8592,-3.8703,-3.874,-3.8752,-3.8907,-3.8789,-3.8797,-3.8803,-3.8807,-3.917,-3.9174,0,0,0,0,0,0,-3.8308,-3.8333,-3.8547,-3.8556,-3.8406,-3.8507,-3.8523,-3.8576,-3.8656,-3.8664,-3.8595,-3.859,-3.8727,-3.8742,-3.8757,-3.8915,-3.8799,-3.8808,-3.8813,-3.9166,-3.9171,-3.9176,0,0,0,0,0,0,-3.8302,-3.8327,-3.8541,-3.8444,-3.8471,-3.8516,-3.8575,-3.858,-3.8618,-3.867,-3.8677,-3.8625,-3.8724,-3.8744,-3.8859,-3.892,-3.8812,-3.882,-3.9161,-3.9168,-3.9173,-3.9234,0,0,0,0,0,0,-3.8293,-3.8325,-3.8376,-3.8445,-3.8476,-3.8642,-3.8579,-3.8586,-3.8634,-3.8629,-3.87,-3.8708,-3.8723,-3.8845,-3.8868,-3.8931,-3.8827,-3.9156,-3.9164,-3.9171,-3.9226,-3.9241,-3.9254,0,0,0,0,0,-3.8283,-3.8388,-3.8379,-3.8405,-3.8541,-3.8645,-3.8663,-3.8678,-3.8639,-3.869,-3.8723,-3.8706,-3.891,-3.8857,-3.8882,-3.8949,-3.9152,-3.9162,-3.9171,-3.922,-3.9238,-3.9253,0,0,0,0,0,0,-3.8325,-3.8397,-3.8388,-3.8518,-3.8576,-3.8641,-3.8706,-3.8697,-3.8766,-3.8759,-3.8774,-3.879,-3.8906,-3.8939,-3.8879,-3.9079,-3.9025,-3.904,-3.9054,-3.9072,-3.9085,-3.9075,-3.8835,0,0,0,0,0,-3.8349,-3.8428,-3.8487,-3.8596,-3.8625,-3.8661,-3.8707,-3.8714,-3.8774,-3.8798,-3.8839,-3.8897,-3.8974,-3.9025,-3.9098,-3.9231,-3.9245,-3.9289,-3.9302,-3.9313,-3.9326,-3.9397,-3.9417,-3.9206,-3.9206,-3.9206,0,0,-3.84,-3.8449,-3.8499,-3.8606,-3.8651,-3.8732,-3.8682,-3.877,-3.883,-3.8811,-3.8922,-3.8954,-3.902,-3.9143,-3.92,-3.9174,-3.9387,-3.9325,-3.9334,-3.9341,-3.9409,-3.9428,-3.9446,-3.9213,-3.9212,-3.9211,0,0,-3.8534,-3.858,-3.8676,-3.8722,-3.8791,-3.8814,-3.8837,-3.8903,-3.8924,-3.9035,-3.9023,-3.9093,-3.9226,-3.9273,-3.9314,-3.9465,-3.9451,-3.9489,-3.956,-3.9629,-3.9646,-3.9661,-3.9713,-3.9732,-3.9501,-3.9501,-3.9501,0,-3.8589,-3.8712,-3.8726,-3.8815,-3.8862,-3.8849,-3.8945,-3.8989,-3.9079,-3.9111,-3.9081,-3.9246,-3.929,-3.9423,-3.946,-3.9494,-3.952,-3.9481,-3.9642,-3.9657,-3.9671,-3.9722,-3.9742,-3.9505,-3.9505,-3.9504,-3.9504,0,-3.8775,-3.886,-3.8928,-3.9015,-3.907,-3.9162,-3.919,-3.9243,-3.9244,-3.927,-3.9382,-3.9434,-3.9517,-3.9549,-3.9552,-3.9683,-3.9665,-3.9639,-3.9584,-3.9695,-3.9743,-3.9762,-3.9511,-3.951,-3.9508,-3.9507,0,0,-3.894,-3.9033,-3.9058,-3.9097,-3.9172,-3.9237,-3.9328,-3.941,-3.9455,-3.9517,-3.9593,-3.9705,-3.968,-3.9727,-3.9734,-3.9795,-3.991,-3.9761,-3.9763,-3.9786,-4.0057,-4.0076,-4.0098,-3.9901,-3.9905,-3.9908,-4.0051,0,-3.9081,-3.9242,-3.9257,-3.9402,-3.9479,-3.9467,-3.9546,-3.96,-3.9626,-3.9695,-3.9723,-3.9802,-3.9764,-3.9792,-3.9851,-3.9883,-3.9964,-3.9873,-3.9971,-3.9974,-3.9954,-4.0123,-4.0144,-4.0276,-4.007,-4.0073,-4.0075,0,-3.9267,-3.9335,-3.9487,-3.955,-3.9583,-3.9654,-3.9729,-3.9796,-3.9856,-3.987,-3.9922,-3.9921,-4.0013,-3.9955,-4.0082,-4.0019,-4.006,-4.0081,-4.0087,-4.0096,-4.0031,-4.0136,-4.0319,-4.0339,-4.0105,-4.0102,-4.01,0,-3.9372,-3.9501,-3.9608,-3.9642,-3.9718,-3.9768,-3.9802,-3.9858,-3.9906,-3.9972,-4.0002,-4.0078,-4.0119,-4.0177,-4.0195,-4.0152,-4.0321,-4.0265,-4.0334,-4.0334,-4.037,-4.0368,-4.0562,-4.0397,-4.0397,-4.0397,-4.0396,0,-3.9528,-3.9621,-3.9656,-3.9722,-3.9825,-3.9841,-3.9943,-3.9974,-4.0024,-4.0095,-4.0089,-4.0155,-4.0176,-4.0246,-4.0261,-4.0362,-4.0381,-4.0394,-4.0397,-4.0395,-4.0393,-4.0422,-4.0413,-4.0402,-4.0401,-4.04,-4.0399,0,-3.9662,-3.9689,-3.9805,-3.9868,-3.9885,-3.9959,-4.0012,-4.0075,-4.0099,-4.0189,-4.021,-4.0248,-4.033,-4.0354,-4.0452,-4.0462,-4.0581,-4.0576,-4.0561,-4.0561,-4.0629,-4.0622,-4.0848,-4.0878,-4.0694,-4.0696,-4.0697,0,-3.9759,-3.9831,-3.9901,-3.9948,-3.9984,-4.006,-4.0109,-4.0126,-4.0177,-4.025,-4.0304,-4.0385,-4.045,-4.0581,-4.0616,-4.0691,-4.0687,-4.0761,-4.0698,-4.0693,-4.0687,-4.0682,-4.0689,-4.0773,-4.0774,-4.0776,-4.0777,0,-3.9929,-3.9939,-4.001,-4.0085,-4.0143,-4.0203,-4.0261,-4.03,-4.0325,-4.0382,-4.0466,-4.0517,-4.0616,-4.0696,-4.0772,-4.0805,-4.0795,-4.0797,-4.0817,-4.0815,-4.0803,-4.0809,-4.0593,-4.0792,-4.079,-4.0789,-4.0788,-4.0788,-4.0048,-4.011,-4.0169,-4.0247,-4.0293,-4.0346,-4.0408,-4.044,-4.051,-4.0593,-4.0599,-4.0689,-4.0745,-4.0846,-4.0883,-4.0953,-4.0931,-4.096,-4.0968,-4.0975,-4.098,-4.0792,-4.0967,-4.0967,-4.0966,-4.0966,-4.0966,0,-4.0217,-4.0253,-4.0326,-4.0406,-4.0468,-4.0454,-4.0516,-4.0568,-4.0648,-4.0702,-4.0766,-4.0861,-4.0938,-4.098,-4.1056,-4.1104,-4.1101,-4.1123,-4.1119,-4.1127,-4.0995,-4.097,-4.1124,-4.1124,-4.1124,-4.1124,-4.1124,-4.1124,-4.0312,-4.0416,-4.0433,-4.0559,-4.0595,-4.0683,-4.072,-4.0769,-4.0812,-4.0919,-4.0983,-4.1009,-4.1058,-4.1137,-4.1207,-4.1217,-4.1245,-4.1269,-4.1277,-4.1153,-4.1137,-4.1121,-4.1098,-4.1276,-4.1276,-4.1403,-4.1404,-4.1405]}]]